Volver al catálogo

CZ-4 DEB

ActivoSSO
NORAD 20881·DEBRIS·🇨🇳 China

Lanzado Sep 3, 1990 desde Taiyuan Satellite Launch Center

Loading…

Próximos Pases (próximas 24 horas)

TLE

ActualizadoSource: Space-Track

Época: Sep 14, 2026, 11:19 UTC

1 20881U 90081AR  26257.47221027  .00002523  00000-0  68431-3 0  9991
2 20881  98.4726 267.6429 0069460   7.0132 353.2015 14.47086757865097

Sigue CZ-4 DEB en tiempo real con AllMySat

Download on the App Store